[[{"header":{"parameterUnit":"m.s-1","parameterCategory":1,"la1":30.2991,"la2":30.254,"lo1":-89.0895,"lo2":-89.0444,"dy":0.0017,"dx":0.0017,"nx":28,"ny":28,"refTime":"2025-05-19T21:00:00:Z","depth":0,"parameterNumber":2,"parameterNumberName":"U-component_of_WINDS"},"data":[0,0,0,0,0,0,0,0,0,0,0,0,0,0,0,0,0,0,0,0,0,0,0,0,0,0,0,0,0,0,0,0,0,0,0,0,0,0,0,0,0,0,0,0,0,0,0,0,0,0,0,0,0,0,0,0,0,0,1.4476,1.4477,0,1.4537,1.4537,1.4538,1.4527,1.4526,1.4525,1.4524,1.4587,1.4589,1.4592,0,0,0,0,0,0,0,0,0,0,0,0,0,1.4351,1.4354,1.4476,1.4477,1.4478,1.4537,1.4538,1.4538,1.4528,1.4526,1.4525,1.4524,1.4586,1.4589,1.4592,0,0,0,0,0,0,0,0,0,0,0,0,0,1.4408,1.4354,1.4476,1.4479,1.448,1.4537,1.4538,1.4539,1.4528,1.4526,1.4525,1.4523,1.4585,1.4589,1.4593,1.4649,0,0,1.4605,1.4607,0,0,0,0,0,0,0,0,1.4405,1.4413,1.4478,1.4479,1.448,1.4523,1.4516,1.4576,1.4528,1.451,1.4524,1.4522,1.4567,1.4572,1.4587,1.4652,1.4655,1.4605,1.4608,1.4609,1.461,0,0,0,0,0,0,0,1.4401,1.441,1.45,1.4479,1.448,1.4478,1.4484,1.4528,1.4547,1.4511,1.4511,1.4518,1.4567,1.4583,1.4589,1.4656,1.4605,1.4609,1.4611,1.4613,1.4771,1.4773,0,0,0,0,0,0,1.4396,1.4407,1.4498,1.4502,1.4438,1.4482,1.4489,1.4511,1.4546,1.455,1.4519,1.4517,1.4577,1.4584,1.4591,1.466,1.4609,1.4613,1.4615,1.4769,1.4772,1.4773,0,0,0,0,0,0,1.4393,1.4404,1.4496,1.4454,1.4466,1.4485,1.4511,1.4513,1.4529,1.4552,1.4555,1.4532,1.4576,1.4585,1.4635,1.4662,1.4615,1.4618,1.4767,1.477,1.4773,1.4798,0,0,0,0,0,0,1.439,1.4403,1.4425,1.4455,1.4468,1.4539,1.4512,1.4515,1.4536,1.4534,1.4565,1.4569,1.4576,1.4629,1.4639,1.4666,1.4622,1.4765,1.4768,1.4772,1.4795,1.4801,1.4806,0,0,0,0,0,1.4385,1.443,1.4426,1.4437,1.4495,1.454,1.4548,1.4555,1.4538,1.456,1.4575,1.4568,1.4657,1.4634,1.4645,1.4674,1.4763,1.4767,1.4771,1.4792,1.48,1.4806,0,0,0,0,0,0,1.4402,1.4433,1.443,1.4485,1.451,1.4538,1.4566,1.4563,1.4593,1.459,1.4597,1.4604,1.4655,1.467,1.4644,1.4731,1.4708,1.4714,1.472,1.4727,1.4733,1.4728,1.4625,0,0,0,0,0,1.4412,1.4446,1.4472,1.4518,1.4531,1.4546,1.4566,1.4569,1.4596,1.4606,1.4625,1.4651,1.4685,1.4707,1.4739,1.4797,1.4803,1.4822,1.4828,1.4833,1.4838,1.487,1.4879,1.4787,1.4787,1.4787,0,0,1.4433,1.4455,1.4476,1.4522,1.4542,1.4577,1.4555,1.4593,1.4619,1.4612,1.466,1.4675,1.4704,1.4758,1.4783,1.4772,1.4865,1.4838,1.4842,1.4844,1.4875,1.4884,1.4891,1.479,1.4789,1.4789,0,0,1.449,1.4509,1.455,1.4571,1.4601,1.4611,1.4621,1.465,1.466,1.4708,1.4703,1.4735,1.4793,1.4814,1.4833,1.4898,1.4893,1.4908,1.4939,1.497,1.4977,1.4984,1.5007,1.5015,1.4914,1.4914,1.4914,0,1.4512,1.4565,1.4571,1.461,1.4631,1.4626,1.4667,1.4687,1.4726,1.4741,1.4728,1.4801,1.482,1.4879,1.4895,1.491,1.4922,1.4905,1.4976,1.4982,1.4988,1.5011,1.5019,1.4916,1.4915,1.4915,1.4915,0,1.4591,1.4628,1.4657,1.4695,1.4719,1.4759,1.4772,1.4795,1.4797,1.4808,1.4858,1.4881,1.4919,1.4933,1.4935,1.4993,1.4985,1.4974,1.495,1.4999,1.502,1.5028,1.4918,1.4917,1.4917,1.4916,0,0,1.4659,1.4701,1.4712,1.4729,1.4763,1.4791,1.4831,1.4867,1.4887,1.4915,1.4949,1.4998,1.4989,1.5009,1.5014,1.5041,1.5091,1.5026,1.5027,1.5038,1.5157,1.5164,1.5174,1.5088,1.509,1.5091,1.5154,0,1.4718,1.4789,1.4796,1.4859,1.4893,1.4889,1.4924,1.4949,1.4961,1.4992,1.5005,1.504,1.5025,1.5037,1.5064,1.5079,1.5115,1.5075,1.5119,1.5121,1.5112,1.5185,1.5194,1.5252,1.5162,1.5164,1.5165,0,1.4797,1.4827,1.4893,1.4923,1.4937,1.4968,1.5002,1.5032,1.506,1.5067,1.5091,1.5091,1.5133,1.5108,1.5165,1.5138,1.5157,1.5167,1.5169,1.5173,1.5145,1.5191,1.5271,1.5279,1.5178,1.5177,1.5176,0,1.484,1.4897,1.4944,1.4959,1.4994,1.5016,1.5032,1.5058,1.508,1.511,1.5124,1.5159,1.5178,1.5205,1.5215,1.5196,1.5271,1.5248,1.5278,1.5278,1.5294,1.5293,1.5378,1.5307,1.5307,1.5306,1.5306,0,1.4905,1.4946,1.4964,1.4993,1.5038,1.5047,1.5092,1.5106,1.513,1.5162,1.5161,1.5191,1.5203,1.5235,1.5243,1.5289,1.5298,1.5305,1.5306,1.5304,1.5304,1.5317,1.5313,1.5309,1.5308,1.5308,1.5307,0,1.496,1.4974,1.5025,1.5055,1.5063,1.5095,1.5121,1.5149,1.5161,1.5201,1.5211,1.523,1.5268,1.5281,1.5326,1.5332,1.5386,1.5384,1.5376,1.5376,1.5407,1.5403,1.5502,1.5516,1.5436,1.5437,1.5438,0,1.5001,1.5032,1.5065,1.5087,1.5103,1.5138,1.516,1.517,1.5193,1.5227,1.5251,1.5289,1.5319,1.538,1.5398,1.5433,1.5432,1.5464,1.5437,1.5434,1.5432,1.543,1.5433,1.5469,1.547,1.547,1.5471,0,1.5071,1.5077,1.5109,1.5144,1.517,1.5198,1.5225,1.5243,1.5256,1.5283,1.5321,1.5345,1.5392,1.5429,1.5465,1.5481,1.5478,1.5479,1.5488,1.5487,1.5481,1.5484,1.539,1.5477,1.5476,1.5476,1.5475,1.5475,1.512,1.5148,1.5176,1.5212,1.5233,1.5259,1.5287,1.5303,1.5335,1.5374,1.5378,1.5419,1.5447,1.5495,1.5513,1.5546,1.5537,1.555,1.5553,1.5556,1.5558,1.5476,1.5552,1.5552,1.5552,1.5552,1.5552,0,1.5191,1.5209,1.5242,1.528,1.5308,1.5303,1.5333,1.5357,1.5394,1.542,1.545,1.5494,1.5531,1.5552,1.5588,1.561,1.561,1.562,1.5618,1.5622,1.5564,1.5553,1.5619,1.5619,1.5619,1.5619,1.5619,1.5619,1.523,1.5277,1.5286,1.5344,1.5362,1.5402,1.542,1.5443,1.5464,1.5514,1.5544,1.5558,1.5582,1.562,1.5653,1.5659,1.5672,1.5682,1.5687,1.5633,1.5626,1.5619,1.5608,1.5685,1.5685,1.5742,1.5742,1.5742]},{"header":{"parameterUnit":"m.s-1","parameterCategory":1,"la1":30.2991,"la2":30.254,"lo1":-89.0895,"lo2":-89.0444,"dy":0.0017,"dx":0.0017,"nx":28,"ny":28,"refTime":"2025-05-19T21:00:00:Z","depth":0,"parameterNumber":3,"parameterNumberName":"V-component_of_WINDS"},"data":[0,0,0,0,0,0,0,0,0,0,0,0,0,0,0,0,0,0,0,0,0,0,0,0,0,0,0,0,0,0,0,0,0,0,0,0,0,0,0,0,0,0,0,0,0,0,0,0,0,0,0,0,0,0,0,0,0,0,6.9638,6.9638,0,6.9668,6.9669,6.9669,6.9641,6.964,6.9639,6.9638,6.9666,6.9668,6.967,0,0,0,0,0,0,0,0,0,0,0,0,0,6.9555,6.9557,6.9638,6.9638,6.9639,6.9668,6.9669,6.9669,6.9641,6.964,6.9639,6.9637,6.9666,6.9668,6.967,0,0,0,0,0,0,0,0,0,0,0,0,0,6.9589,6.9557,6.9638,6.9628,6.9628,6.9668,6.9669,6.9669,6.9642,6.964,6.9638,6.9637,6.9665,6.9668,6.967,6.9721,0,0,6.9679,6.968,0,0,0,0,0,0,0,0,6.9587,6.9592,6.9629,6.9629,6.9629,6.9649,6.965,6.9686,6.9642,6.9636,6.9638,6.9636,6.9662,6.9665,6.9674,6.9722,6.9723,6.9679,6.968,6.9682,6.9682,0,0,0,0,0,0,0,6.9585,6.959,6.965,6.963,6.963,6.9623,6.9626,6.9657,6.9658,6.9637,6.9635,6.9639,6.9661,6.9671,6.9674,6.9724,6.9679,6.9681,6.9683,6.9684,6.9817,6.9819,0,0,0,0,0,0,6.9584,6.9589,6.9649,6.9651,6.9603,6.9625,6.9629,6.9644,6.9658,6.9658,6.964,6.9638,6.9668,6.9671,6.9675,6.9736,6.9682,6.9684,6.9686,6.9815,6.9817,6.982,0,0,0,0,0,0,6.9582,6.9589,6.9648,6.9619,6.9626,6.9629,6.9646,6.9646,6.9656,6.966,6.966,6.9651,6.9666,6.9671,6.971,6.9737,6.9685,6.9688,6.9813,6.9816,6.9819,6.9858,0,0,0,0,0,0,6.958,6.9589,6.9608,6.962,6.9628,6.9682,6.9648,6.9648,6.9661,6.9658,6.967,6.967,6.9666,6.9706,6.9713,6.974,6.969,6.981,6.9814,6.9818,6.9855,6.9862,6.9869,0,0,0,0,0,6.9577,6.9616,6.9609,6.9616,6.9652,6.9684,6.9688,6.9683,6.9663,6.9683,6.9686,6.967,6.9733,6.9711,6.9718,6.9746,6.9809,6.9813,6.9817,6.9851,6.9861,6.9869,0,0,0,0,0,0,6.9605,6.9618,6.9609,6.9654,6.9669,6.9679,6.9703,6.9692,6.9711,6.9707,6.9699,6.9702,6.9743,6.9748,6.9723,6.9797,6.9768,6.9774,6.9791,6.98,6.9807,6.9805,6.9692,0,0,0,0,0,6.9617,6.9643,6.9652,6.9691,6.9699,6.97,6.9714,6.9709,6.9722,6.9728,6.9734,6.9747,6.9771,6.9786,6.9807,6.9856,6.9859,6.9879,6.9886,6.9892,6.9897,6.9924,6.9934,6.9834,6.9834,6.9834,0,0,6.9641,6.9651,6.9667,6.9697,6.9707,6.9734,6.9705,6.9734,6.9754,6.9732,6.9769,6.9775,6.9789,6.9834,6.9854,6.984,6.9925,6.9897,6.9902,6.9904,6.993,6.9939,6.9948,6.9837,6.9836,6.9836,0,0,6.9698,6.9708,6.9743,6.9755,6.9772,6.9773,6.9782,6.9795,6.9798,6.9836,6.9821,6.9845,6.9884,6.9896,6.9907,6.9974,6.996,6.9981,7.0017,7.0044,7.0052,7.0059,7.0084,7.0092,6.9986,6.9986,6.9986,0,6.9725,6.9766,6.9761,6.9793,6.9807,6.9791,6.9826,6.9837,6.986,6.987,6.9854,6.9906,6.9915,6.9963,6.9979,6.9989,6.9998,6.9979,7.0052,7.0059,7.0065,7.0088,7.0097,6.9989,6.9988,6.9988,6.9988,0,6.9799,6.9827,6.9853,6.9878,6.9895,6.9928,6.9929,6.9947,6.9941,6.9945,6.9985,6.9995,7.0019,7.0031,7.0024,7.0079,7.0069,7.0053,7.0024,7.0077,7.0099,7.0107,6.9992,6.9991,6.999,6.999,0,0,6.9871,6.9897,6.9906,6.9918,6.9938,6.996,6.9993,7.0018,7.0034,7.0051,7.0079,7.0115,7.0101,7.0114,7.0109,7.0133,7.0187,7.0114,7.0114,7.0127,7.0248,7.026,7.027,7.0179,7.018,7.0182,7.0247,0,6.993,6.9989,6.9988,7.0042,7.0069,7.0056,7.0085,7.0101,7.0105,7.0129,7.0134,7.016,7.0139,7.0147,7.017,7.0175,7.0211,7.0171,7.0204,7.0205,7.02,7.0281,7.0294,7.0355,7.0255,7.0257,7.0258,0,7.0005,7.0028,7.0085,7.0104,7.0115,7.0141,7.0166,7.0189,7.0206,7.0208,7.0225,7.0217,7.0251,7.0223,7.027,7.0243,7.0257,7.0262,7.0265,7.0267,7.0234,7.0286,7.0374,7.0383,7.0271,7.027,7.0269,0,7.0054,7.0098,7.0139,7.0149,7.0171,7.0191,7.0201,7.0217,7.0233,7.0255,7.0266,7.029,7.0304,7.0323,7.0323,7.0302,7.0372,7.0343,7.0374,7.0374,7.0388,7.0387,7.0479,7.0398,7.0398,7.0398,7.0398,0,7.0118,7.0154,7.0161,7.0186,7.0226,7.0226,7.0265,7.0274,7.0289,7.0315,7.0306,7.0331,7.0329,7.0355,7.0355,7.0395,7.0401,7.0403,7.0403,7.0404,7.0404,7.0412,7.0408,7.04,7.04,7.0399,7.0399,0,7.0178,7.0184,7.0228,7.0247,7.0253,7.0282,7.0297,7.0321,7.0327,7.0361,7.0368,7.0376,7.0406,7.0409,7.0442,7.0443,7.0491,7.0486,7.0486,7.0485,7.0516,7.0513,7.0616,7.063,7.054,7.0541,7.0542,0,7.0219,7.0247,7.027,7.0288,7.0299,7.0328,7.0346,7.0347,7.0365,7.039,7.0411,7.0441,7.0464,7.0512,7.0521,7.0547,7.0543,7.0577,7.0546,7.0547,7.0543,7.0542,7.0545,7.0583,7.0584,7.0585,7.0585,0,7.0291,7.0293,7.032,7.0348,7.037,7.0392,7.0412,7.0427,7.0431,7.0453,7.0484,7.0503,7.0539,7.0569,7.0596,7.0605,7.0596,7.0595,7.0604,7.0605,7.0604,7.0605,7.0502,7.0592,7.0592,7.0591,7.0591,7.059,7.0342,7.0367,7.0388,7.0419,7.0435,7.0455,7.048,7.0489,7.0516,7.0547,7.0546,7.0581,7.06,7.0636,7.0648,7.0675,7.0663,7.0676,7.0679,7.0682,7.0685,7.06,7.068,7.068,7.068,7.0679,7.0679,0,7.0414,7.0428,7.0456,7.0487,7.0511,7.0503,7.0526,7.0546,7.0578,7.0597,7.0622,7.0659,7.0688,7.0701,7.0729,7.0749,7.0746,7.0757,7.0755,7.0757,7.0694,7.0684,7.0759,7.0759,7.0759,7.0759,7.0759,7.0759,7.0454,7.0497,7.0502,7.0553,7.0567,7.0602,7.0616,7.0635,7.0651,7.0694,7.0719,7.0728,7.0745,7.0775,7.0802,7.0805,7.0816,7.0829,7.083,7.077,7.0762,7.0754,7.0744,7.0831,7.0831,7.0891,7.0891,7.0892]}]]